Location: Brodeslavy
(49.9527°N, 13.5567°E)
Time: 05:15:59
(UTC+00:00)

SJ 16-02 - Pass Details

Date: 17 June 2025
Orbit: 588 x 596 km, 75.0° (Epoch: 12 July)

Event Time Altitude Azimuth Distance (km) Brightness Sun altitude
Exits shadow 23:04:21 30° 204° (SSW) 1,077 2.1 -16.6°
Maximum altitude 23:06:26 86° 290° (WNW) 605 1.2 -16.6°
Drops below altitude 10° 23:10:47 10° 22° (NNE) 1,943 5.0 -16.6°
Sets 23:13:01 0° 22° (NNE) 2,849 6.1 -16.6°
